• In India
  • List of Countries
  • For 7 days
  • Water Temperature
  • Satellite Maps
  • Weather Map
  • Weather Widgets
  • user-avatar
    Login

    Hourly Weather Kurytyba

    Today, 22 September, Saturday

    Time Temperature Precipitation Wind Pressure Humidity
    00:00 +16°C° 0 mm 0 mps 681 mmHg 92%
    01:00 +15°C° 0 mm 0 mps 681 mmHg 93%
    02:00 +15°C° 0 mm 0 mps 681 mmHg 94%
    03:00 +15°C° 0 mm 0 mps 681 mmHg 95%
    04:00 +15°C° 0 mm 0 mps 681 mmHg 96%
    05:00 +15°C° 0 mm 0 mps 681 mmHg 96%
    06:00 +14°C° 0 mm 0 mps 681 mmHg 97%
    07:00 +17°C° 0 mm 0 mps 682 mmHg 86%
    08:00 +19°C° 0 mm 0 mps 683 mmHg 75%
    09:00 +24°C° 0 mm 1 mps 684 mmHg 66%
    10:00 +26°C° 0 mm 1 mps 684 mmHg 58%
    11:00 +28°C° 0 mm 1 mps 684 mmHg 49%
    12:00 +30°C° 0 mm 1 mps 684 mmHg 41%
    13:00 +30°C° 0 mm 1 mps 683 mmHg 40%
    14:00 +30°C° 0 mm 1 mps 683 mmHg 39%
    15:00 +30°C° 0 mm 1 mps 682 mmHg 38%
    16:00 +28°C° 0 mm 1 mps 682 mmHg 48%
    17:00 +25°C° 0 mm 1 mps 681 mmHg 57%
    18:00 +23°C° 0 mm 1 mps 681 mmHg 66%
    19:00 +22°C° 0 mm 1 mps 681 mmHg 74%
    20:00 +21°C° 0 mm 1 mps 681 mmHg 81%
    21:00 +19°C° 0 mm 1 mps 681 mmHg 88%
    22:00 +19°C° 0 mm 1 mps 681 mmHg 90%
    23:00 +19°C° 0 mm 1 mps 681 mmHg 92%

    Tomorrow, 23 September, Sunday

    Time Temperature Precipitation Wind Pressure Humidity
    00:00 +18°C° 0 mm 1 mps 681 mmHg 94%
    01:00 +18°C° 0 mm 1 mps 681 mmHg 92%
    02:00 +18°C° 0 mm 1 mps 681 mmHg 91%
    03:00 +15°C° 0 mm 0 mps 681 mmHg 90%
    04:00 +15°C° 0 mm 0 mps 681 mmHg 88%
    05:00 +15°C° 0 mm 0 mps 681 mmHg 87%
    06:00 +15°C° 0 mm 0 mps 681 mmHg 85%
    07:00 +18°C° 0 mm 0 mps 682 mmHg 75%
    08:00 +22°C° 0 mm 1 mps 683 mmHg 65%
    09:00 +25°C° 0 mm 1 mps 684 mmHg 56%
    10:00 +27°C° 0 mm 1 mps 684 mmHg 49%
    11:00 +29°C° 0 mm 1 mps 684 mmHg 43%
    12:00 +31°C° 0 mm 1 mps 684 mmHg 36%
    13:00 +31°C° 0 mm 1 mps 683 mmHg 35%
    14:00 +31°C° 0 mm 1 mps 683 mmHg 34%
    15:00 +32°C° 0 mm 1 mps 682 mmHg 32%
    16:00 +29°C° 0 mm 1 mps 682 mmHg 42%
    17:00 +27°C° 0 mm 1 mps 681 mmHg 51%
    18:00 +22°C° 0 mm 0 mps 681 mmHg 60%
    19:00 +23°C° 0 mm 1 mps 681 mmHg 65%
    20:00 +22°C° 0 mm 1 mps 681 mmHg 70%
    21:00 +21°C° 0 mm 1 mps 682 mmHg 75%
    22:00 +20°C° 0 mm 1 mps 682 mmHg 75%
    23:00 +20°C° 0 mm 1 mps 682 mmHg 76%

    Day after tomorrow, 24 September, Monday

    Time Temperature Precipitation Wind Pressure Humidity
    00:00 +20°C° 0 mm 1 mps 682 mmHg 77%
    01:00 +19°C° 0 mm 1 mps 681 mmHg 76%
    02:00 +17°C° 0 mm 0 mps 681 mmHg 76%
    03:00 +17°C° 0 mm 0 mps 680 mmHg 75%
    04:00 +18°C° 0 mm 1 mps 680 mmHg 75%
    05:00 +18°C° 0 mm 1 mps 680 mmHg 75%
    06:00 +18°C° 0 mm 1 mps 680 mmHg 74%
    07:00 +19°C° 0 mm 0 mps 681 mmHg 65%
    08:00 +22°C° 0 mm 0 mps 682 mmHg 56%
    09:00 +25°C° 0 mm 0 mps 683 mmHg 47%
    10:00 +27°C° 0 mm 0 mps 683 mmHg 42%
    11:00 +31°C° 0 mm 1 mps 684 mmHg 37%
    12:00 +33°C° 0 mm 1 mps 684 mmHg 32%
    13:00 +32°C° 0 mm 1 mps 683 mmHg 32%
    14:00 +32°C° 0 mm 1 mps 683 mmHg 32%
    15:00 +32°C° 0 mm 1 mps 682 mmHg 33%
    16:00 +30°C° 0 mm 1 mps 682 mmHg 42%
    17:00 +27°C° 0 mm 1 mps 681 mmHg 52%
    18:00 +25°C° 0 mm 1 mps 681 mmHg 62%
    19:00 +24°C° 0 mm 1 mps 681 mmHg 66%
    20:00 +23°C° 0 mm 1 mps 682 mmHg 70%
    21:00 +22°C° 0 mm 1 mps 682 mmHg 74%
    22:00 +22°C° 0 mm 1 mps 682 mmHg 75%
    23:00 +21°C° 0 mm 1 mps 682 mmHg 77%

    25 September, Tuesday

    Time Temperature Precipitation Wind Pressure Humidity
    00:00 +21°C° 0 mm 1 mps 682 mmHg 78%
    01:00 +20°C° 0 mm 1 mps 681 mmHg 79%
    02:00 +18°C° 0 mm 0 mps 681 mmHg 80%
    03:00 +17°C° 0 mm 0 mps 680 mmHg 82%
    04:00 +17°C° 0 mm 0 mps 680 mmHg 82%
    05:00 +17°C° 0 mm 0 mps 680 mmHg 82%
    06:00 +16°C° 0 mm 0 mps 680 mmHg 83%
    07:00 +20°C° 0 mm 1 mps 681 mmHg 74%
    08:00 +22°C° 0 mm 1 mps 682 mmHg 66%
    09:00 +24°C° 0 mm 1 mps 683 mmHg 58%
    10:00 +26°C° 0 mm 1 mps 683 mmHg 52%
    11:00 +28°C° 0 mm 1 mps 683 mmHg 46%
    12:00 +30°C° 0 mm 2 mps 683 mmHg 40%
    13:00 +30°C° 0 mm 2 mps 682 mmHg 39%
    14:00 +31°C° 0 mm 2 mps 681 mmHg 39%
    15:00 +31°C° 0 mm 2 mps 681 mmHg 38%
    16:00 +29°C° 0 mm 2 mps 680 mmHg 48%
    17:00 +26°C° 0 mm 2 mps 680 mmHg 58%
    18:00 +24°C° 0 mm 1 mps 679 mmHg 68%
    19:00 +23°C° 0 mm 1 mps 680 mmHg 75%
    20:00 +22°C° 0 mm 1 mps 680 mmHg 81%
    21:00 +21°C° 0 mm 1 mps 680 mmHg 88%
    22:00 +20°C° 0 mm 1 mps 680 mmHg 90%
    23:00 +20°C° 0 mm 1 mps 679 mmHg 91%

    26 September, Wednesday

    Time Temperature Precipitation Wind Pressure Humidity
    00:00 +19°C° 0 mm 1 mps 679 mmHg 93%
    01:00 +19°C° 0 mm 1 mps 679 mmHg 92%
    02:00 +19°C° 0 mm 1 mps 678 mmHg 92%
    03:00 +19°C° 0 mm 1 mps 678 mmHg 91%
    04:00 +19°C° 0 mm 1 mps 678 mmHg 90%
    05:00 +19°C° 0 mm 1 mps 678 mmHg 89%
    06:00 +19°C° 0 mm 1 mps 678 mmHg 88%
    07:00 +19°C° 0.4 mm 1 mps 678 mmHg 89%
    08:00 +20°C° 0.4 mm 1 mps 679 mmHg 90%
    09:00 +20°C° 0.4 mm 1 mps 679 mmHg 91%
    10:00 +20°C° 0.3 mm 2 mps 679 mmHg 85%
    11:00 +21°C° 0.3 mm 2 mps 679 mmHg 80%
    12:00 +22°C° 0.3 mm 3 mps 679 mmHg 74%
    13:00 +24°C° 0.2 mm 3 mps 679 mmHg 70%
    14:00 +25°C° 0.2 mm 3 mps 679 mmHg 65%
    15:00 +26°C° 0.2 mm 3 mps 678 mmHg 60%
    16:00 +25°C° 0 mm 2 mps 678 mmHg 66%
    17:00 +24°C° 0 mm 1 mps 678 mmHg 71%
    18:00 +23°C° 0 mm 1 mps 678 mmHg 77%
    19:00 +22°C° 0 mm 1 mps 678 mmHg 81%
    20:00 +19°C° 0 mm 0 mps 678 mmHg 85%
    21:00 +18°C° 0 mm 0 mps 678 mmHg 89%
    22:00 +18°C° 0 mm 0 mps 678 mmHg 90%
    23:00 +18°C° 0 mm 0 mps 679 mmHg 91%

    27 September, Thursday

    Time Temperature Precipitation Wind Pressure Humidity
    00:00 +17°C° 0 mm 0 mps 679 mmHg 91%
    01:00 +17°C° 0 mm 0 mps 679 mmHg 93%
    02:00 +17°C° 0 mm 0 mps 679 mmHg 94%
    03:00 +17°C° 0 mm 0 mps 679 mmHg 96%
    04:00 +17°C° 0 mm 0 mps 679 mmHg 96%
    05:00 +17°C° 0 mm 0 mps 679 mmHg 96%
    06:00 +16°C° 0 mm 0 mps 679 mmHg 96%
    07:00 +20°C° 0 mm 1 mps 680 mmHg 88%
    08:00 +22°C° 0 mm 1 mps 681 mmHg 80%
    09:00 +24°C° 0 mm 1 mps 682 mmHg 72%
    10:00 +24°C° 0.1 mm 1 mps 682 mmHg 70%
    11:00 +25°C° 0.1 mm 1 mps 682 mmHg 68%
    12:00 +26°C° 0.1 mm 1 mps 681 mmHg 65%
    13:00 +25°C° 0.5 mm 1 mps 681 mmHg 69%
    14:00 +25°C° 0.5 mm 1 mps 681 mmHg 72%
    15:00 +24°C° 0.5 mm 2 mps 680 mmHg 75%
    16:00 +23°C° 0.5 mm 2 mps 680 mmHg 80%
    17:00 +21°C° 0.5 mm 2 mps 680 mmHg 85%
    18:00 +20°C° 0.5 mm 2 mps 680 mmHg 90%
    19:00 +20°C° 0.9 mm 1 mps 681 mmHg 92%
    20:00 +19°C° 0.9 mm 1 mps 682 mmHg 94%
    21:00 +19°C° 0.9 mm 1 mps 682 mmHg 96%
    22:00 +19°C° 0.3 mm 1 mps 682 mmHg 96%
    23:00 +18°C° 0.3 mm 1 mps 682 mmHg 97%
    Show more